Athens Eleftherios, Greece

9:45 PM EET on February 20, 2018 (GMT +0200)
Eleftherios Venizelos International

Weather History for LGAV - October, 2012

Change the Weather History Date:

Monday, October 15, 2012

  Actual Average (LGAT) Record (LGAT)
Temperature  
Mean Temperature 73 °F -  
Max Temperature 80 °F 73 °F 80 °F (1999)
Min Temperature 66 °F 60 °F 55 °F (1996)
Cooling Degree Days 8    
Growing Degree Days 23 (Base 50)    
Moisture  
Dew Point 63 °F    
Average Humidity 70    
Maximum Humidity 83    
Minimum Humidity 51    
Precipitation  
Precipitation 0.00 in - - ()
Sea Level Pressure  
Sea Level Pressure 29.99 in    
Wind  
Wind Speed 5 mph ()    
Max Wind Speed 16 mph    
Max Gust Speed -    
Visibility 6.2 miles    
Events      
Averages and records for this station are not official NWS values.
T = Trace of Precipitation, MM = Missing Value Source: Averaged Metar Reports

Daily Weather History Graph

Daily Weather History Graph

Search for Another Location

Airport or City:

Trip Planner

Search our weather history database for the weather conditions in past years. The results will help you decide how hot, cold, wet, or windy it might be!

Date:

Astronomy

Oct. 15, 2012 Rise Set
Actual Time 7:32 AM EEST 6:46 PM EEST
Civil Twilight 7:06 AM EEST 7:12 PM EEST
Nautical Twilight 6:35 AM EEST 7:43 PM EEST
Astronomical Twilight 6:05 AM EEST 8:13 PM EEST
Moon 7:20 AM EEST (10/15) 6:34 PM EEST (10/15)
Length of Visible Light 12h 06m
Length of Day
11h 13m
Waning Crescent, 0% of the Moon is Illuminated
Oct 15
Waning Crescent
Oct 15
New
Oct 22
First Quarter
Oct 29
Full
Nov 7
Last Quarter

Hourly Weather History & Observations

Time (EEST) Temp. Heat Index Dew Point Humidity Pressure Visibility Wind Dir Wind Speed Gust Speed Precip Events Conditions
12:20 AM 68.0 °F - 60.8 °F 78% 29.95 in 6.2 mi West 4.6 mph - N/A   Mostly Cloudy
12:50 AM 66.2 °F - 59.0 °F 78% 29.95 in 6.2 mi Variable 3.5 mph - N/A   Mostly Cloudy
1:20 AM 68.0 °F - 59.0 °F 73% 29.95 in 6.2 mi WNW 4.6 mph - N/A   Mostly Cloudy
1:50 AM 69.8 °F - 57.2 °F 64% 29.95 in 6.2 mi Variable 3.5 mph - N/A   Mostly Cloudy
2:20 AM 69.8 °F - 60.8 °F 73% 29.95 in 6.2 mi West 4.6 mph - N/A   Mostly Cloudy
2:50 AM 68.0 °F - 59.0 °F 73% 29.95 in 6.2 mi Variable 2.3 mph - N/A   Scattered Clouds
3:20 AM 69.8 °F - 60.8 °F 73% 29.95 in 6.2 mi Variable 2.3 mph - N/A   Scattered Clouds
3:50 AM 69.8 °F - 60.8 °F 73% 29.95 in 6.2 mi Calm Calm - N/A   Scattered Clouds
4:20 AM 69.8 °F - 60.8 °F 73% 29.95 in 6.2 mi Variable 1.2 mph - N/A   Scattered Clouds
4:50 AM 68.0 °F - 59.0 °F 73% 29.95 in 6.2 mi NNE 2.3 mph - N/A   Scattered Clouds
5:20 AM 68.0 °F - 59.0 °F 73% 29.95 in 6.2 mi Calm Calm - N/A   Scattered Clouds
5:50 AM 68.0 °F - 60.8 °F 78% 29.95 in 6.2 mi Variable 2.3 mph - N/A   Scattered Clouds
6:20 AM 66.2 °F - 60.8 °F 83% 29.95 in 6.2 mi Calm Calm - N/A   Scattered Clouds
6:50 AM 68.0 °F - 60.8 °F 78% 29.95 in 6.2 mi Calm Calm - N/A   Scattered Clouds
7:20 AM 66.2 °F - 59.0 °F 78% 29.95 in 6.2 mi Calm Calm - N/A   Partly Cloudy
7:50 AM 66.2 °F - 60.8 °F 83% 29.95 in 6.2 mi NNE 2.3 mph - N/A   Scattered Clouds
8:20 AM 68.0 °F - 62.6 °F 83% 29.95 in 6.2 mi Variable 1.2 mph - N/A   Scattered Clouds
8:50 AM 69.8 °F - 64.4 °F 83% 29.98 in 6.2 mi North 1.2 mph - N/A   Scattered Clouds
9:20 AM 73.4 °F - 66.2 °F 78% 29.98 in 6.2 mi Calm Calm - N/A   Scattered Clouds
9:50 AM 75.2 °F - 66.2 °F 73% 29.98 in 6.2 mi SSW 13.8 mph - N/A   Scattered Clouds
10:20 AM 75.2 °F - 64.4 °F 69% 29.98 in 6.2 mi SSW 13.8 mph - N/A   Scattered Clouds
11:20 AM 77.0 °F - 64.4 °F 65% 30.01 in 6.2 mi SSW 10.4 mph - N/A   Scattered Clouds
11:50 AM 78.8 °F - 62.6 °F 57% 30.01 in 6.2 mi SSW 9.2 mph - N/A   Partly Cloudy
12:20 PM 80.6 °F 81.5 °F 60.8 °F 51% 30.01 in 6.2 mi South 16.1 mph - N/A   Scattered Clouds
12:50 PM 80.6 °F 81.5 °F 60.8 °F 51% 30.01 in 6.2 mi SSW 12.7 mph - N/A   Scattered Clouds
1:20 PM 80.6 °F 81.8 °F 62.6 °F 54% 30.01 in 6.2 mi SSW 12.7 mph - N/A   Scattered Clouds
1:50 PM 80.6 °F 81.8 °F 62.6 °F 54% 30.01 in 6.2 mi South 10.4 mph - N/A   Scattered Clouds
2:20 PM 80.6 °F 81.8 °F 62.6 °F 54% 29.98 in 6.2 mi SSW 8.1 mph - N/A   Scattered Clouds
2:50 PM 80.6 °F 81.8 °F 62.6 °F 54% 30.01 in 6.2 mi SSW 12.7 mph - N/A   Scattered Clouds
3:20 PM 78.8 °F - 62.6 °F 57% 29.98 in 6.2 mi SSW 16.1 mph - N/A   Scattered Clouds
3:50 PM 78.8 °F - 64.4 °F 61% 30.01 in 6.2 mi SW 12.7 mph - N/A   Scattered Clouds
4:20 PM 78.8 °F - 62.6 °F 57% 29.98 in 6.2 mi SSW 11.5 mph - N/A   Mostly Cloudy
4:50 PM 77.0 °F - 64.4 °F 65% 29.98 in 6.2 mi SSW 10.4 mph - N/A   Mostly Cloudy
5:20 PM 77.0 °F - 64.4 °F 65% 29.98 in 6.2 mi South 10.4 mph - N/A   Mostly Cloudy
5:50 PM 77.0 °F - 64.4 °F 65% 29.98 in 6.2 mi WSW 8.1 mph - N/A   Mostly Cloudy
6:20 PM 75.2 °F - 64.4 °F 69% 30.01 in 6.2 mi SSW 10.4 mph - N/A   Mostly Cloudy
6:50 PM 75.2 °F - 64.4 °F 69% 30.01 in 6.2 mi SSW 9.2 mph - N/A   Mostly Cloudy
7:20 PM 73.4 °F - 64.4 °F 73% 30.01 in 6.2 mi SW 8.1 mph - N/A   Partly Cloudy
7:50 PM 73.4 °F - 64.4 °F 73% 30.01 in 6.2 mi SSW 6.9 mph - N/A   Scattered Clouds
8:20 PM 73.4 °F - 64.4 °F 73% 30.01 in 6.2 mi SW 4.6 mph - N/A   Mostly Cloudy
8:50 PM 73.4 °F - 66.2 °F 78% 30.04 in 6.2 mi WSW 4.6 mph - N/A   Mostly Cloudy
9:20 PM 71.6 °F - 64.4 °F 78% 30.04 in 6.2 mi West 4.6 mph - N/A   Mostly Cloudy
9:50 PM 71.6 °F - 64.4 °F 78% 30.04 in 6.2 mi SW 2.3 mph - N/A   Mostly Cloudy
10:20 PM 71.6 °F - 64.4 °F 78% 30.06 in 6.2 mi West 4.6 mph - N/A   Mostly Cloudy
10:50 PM 71.6 °F - 64.4 °F 78% 30.06 in 6.2 mi Variable 2.3 mph - N/A   Mostly Cloudy
11:20 PM 71.6 °F - 64.4 °F 78% 30.06 in 6.2 mi West 3.5 mph - N/A   Mostly Cloudy
11:50 PM 69.8 °F - 64.4 °F 83% 30.06 in 6.2 mi West 5.8 mph - N/A   Mostly Cloudy